Preview of NWS' New Version of Forecast
This preview is not operational and should not be used for support decisions.

Regional Weather Roundup (RWR)

Issued by National Weather Service (NWS)

                            
000
ASUS46 KPQR 181310
RWROR 

OREGON REGIONAL WEATHER ROUNDUP
NATIONAL WEATHER SERVICE PORTLAND OR
600 AM PDT SUN AUG 18 2019

NOTE: "FAIR" INDICATES FEW OR NO CLOUDS BELOW 12,000 FEET WITH
NO SIGNIFICANT WEATHER AND/OR OBSTRUCTIONS TO VISIBILITY.

ORZ001>013-181400-
NORTHWEST OREGON

  
CITY           SKY/WX    TMP DP  RH WIND       PRES   REMARKS
ASTORIA        CLOUDY    61  56  83 CALM      29.88S                  
TILLAMOOK      CLOUDY    59  55  88 CALM      29.90S                  
NEWPORT        CLOUDY    52  52 100 CALM      29.91S                  
PORTLAND       CLOUDY    60  55  83 CALM      29.88F                  
VANCOUVER WA   CLOUDY    58  53  84 CALM      29.88F                  
SCAPPOOSE      CLOUDY    57  54  89 CALM      29.87F                  
HILLSBORO      CLOUDY    58  53  84 CALM      29.88F                  
AURORA         CLOUDY    59  53  80 NE5       29.89F                  
MCMINNVILLE    CLOUDY    57  53  86 CALM      29.88S                  
SALEM          CLOUDY    60  53  77 NE5       29.87F                  
CORVALLIS      CLEAR     53  52  96 W6        29.89S                  
EUGENE         PTCLDY    53  50  89 NW7       29.88S                  
$$

ORZ021-028-181400-
SOUTHWEST OREGON

  
CITY           SKY/WX    TMP DP  RH WIND       PRES   REMARKS
NORTH BEND     CLEAR     55  54  96 CALM      29.88F                  
BROOKINGS      LGT RAIN  54  53  97 CALM      29.83S FOG              
ROSEBURG       CLEAR     58  52  80 CALM      29.86S                  
SEXTON SUMMIT  CLEAR     60  44  55 SE3       29.90F                  
GRANTS PASS    FAIR      57  46  67 CALM      29.87S                  
MEDFORD        CLEAR     59  47  64 CALM      29.84S                  
$$

ORZ014>016-041-181400-
COLUMBIA GORGE

  
CITY           SKY/WX    TMP DP  RH WIND       PRES   REMARKS
TROUTDALE      CLOUDY    58  54  86 CALM      29.88F                  
HOOD RIVER     CLEAR     52  46  82 S3        29.83S                  
THE DALLES     CLEAR     56  48  74 S5        29.79F                  
$$

ORZ029>031-041-044-049-050-061>064-502-503-505>511-181400-
EASTERN OREGON

  
CITY           SKY/WX    TMP DP  RH WIND       PRES   REMARKS
MADRAS         CLEAR     46  43  87 SE6       29.89S                  
REDMOND        CLEAR     45  37  73 SE3       29.89S                  
BEND           CLEAR     50  41  71 E6        29.90R                  
PRINEVILLE     CLEAR     45  41  87 CALM      29.89F                  
KLAMATH FALLS  CLEAR     48  43  82 CALM      29.94R                  
LAKEVIEW       CLEAR     41  35  79 NW5       29.99S                  
HERMISTON      CLEAR     55  48  77 CALM      29.80S                  
PENDLETON      CLEAR     52  45  77 SE5       29.82S                  
JOHN DAY       CLEAR     53  40  61 SE9       29.93S                  
MEACHAM        CLEAR     38  35  89 CALM      29.90S                  
LA GRANDE      CLEAR     45  43  93 N3        29.90R                  
BAKER CITY     CLEAR     45  43  93 CALM      29.91S                  
BURNS          PTCLDY    44  33  65 N3        29.95S                  
ROME             N/A     50  30  46 S5        29.93R                  
ONTARIO        CLEAR     55  44  66 CALM      29.87R                  
$$